Flag for Germany Weather past 2 weeks in Warendorf, North Rhine-Westphalia, Germany

Now
73 °F

Broken clouds.


Feels Like: 76 °F
Forecast: 59 / 74 °F
Wind: 6 mph from West

Location: Muenster / Osnabrueck

Current Time: Sep 19, 2014 at 6:56:41 PM

Latest Report: Sep 19, 2014 at 6:20 PM


Visibility: 6 mi

Pressure: 29.86 "Hg

Humidity: 69%

Dew point: 63 °F

Location of WarendorfLocation

Historic Weather in Warendorf — Graph

°F

Warendorf temperature yesterday

Maximum temperature yesterday: 79 °F (at 2:20 PM)
Minimum temperature yesterday: 54 °F (at 6:50 AM)
Average temperature yesterday: 67 °F

Past Weeks' High & Low Weather Summary

 TemperatureHumidityPressure
High79 °F (Sep 18, 2:20 PM)100% (Sep 5, 3:50 AM)30.24 "Hg (Sep 5, 3:50 AM)
Low46 °F (Sep 9, 6:20 AM)48% (Sep 18, 2:20 PM)29.83 "Hg (Sep 19, 4:20 AM)
Average62 °F83%30.03 "Hg
* Reported Sep 4 5:20 PM — Sep 19 5:50 PM, Warendorf, Weather by CustomWeather, © 2014

Note: Actual official high and low records may vary slightly from our data, if they occured in-between our weather recording intervals... More about our weather records

Advertising

Warendorf weather history for previous 24 hours

 ConditionsComfort  
Time TempWeatherWind HumidityBarometerVisibility
5:50 PM
Sep 19
73 °FBroken clouds.2 mph69%29.86 "Hg6 mi
5:20 PM72 °FBroken clouds.3 mph78%29.86 "HgN/A
4:50 PM73 °FScattered showers. Broken clouds.5 mph69%29.86 "HgN/A
4:20 PM72 °FScattered showers. Broken clouds.6 mph73%29.86 "HgN/A
3:50 PM73 °FScattered showers. Broken clouds.3 mph74%29.86 "HgN/A
3:20 PM72 °FBroken clouds.5 mph73%29.86 "HgN/A
2:50 PM73 °FPartly sunny.3 mph74%29.86 "HgN/A
2:20 PM72 °FBroken clouds.2 mph73%29.86 "HgN/A
1:50 PM70 °FBroken clouds.2 mph78%29.86 "HgN/A
1:20 PM70 °FPartly sunny.3 mph78%29.86 "HgN/A
12:50 PM70 °FPartly sunny.3 mph78%29.86 "HgN/A
12:20 PM70 °FPartly sunny.5 mph78%29.86 "HgN/A
11:50 AM68 °FBroken clouds.6 mph83%29.86 "HgN/A
11:20 AM66 °FBroken clouds.2 mph88%29.86 "HgN/A
10:50 AM66 °FBroken clouds.2 mph88%29.89 "HgN/A
10:20 AM66 °FSunny.2 mph88%29.86 "Hg10 mi
9:50 AM64 °FBroken clouds.3 mph94%29.86 "HgN/A
9:20 AM63 °FBroken clouds.3 mph94%29.86 "HgN/A
8:50 AM63 °FBroken clouds.5 mph94%29.86 "HgN/A
8:20 AM63 °FSunny.3 mph94%29.86 "Hg10 mi
7:50 AM61 °FPassing clouds.5 mph100%29.86 "HgN/A
7:20 AM61 °FPassing clouds.5 mph94%29.83 "HgN/A
6:50 AM61 °FClear.5 mph94%29.83 "Hg10 mi
6:20 AM61 °FClear.3 mph94%29.83 "Hg10 mi
5:50 AM61 °FClear.2 mph100%29.83 "Hg10 mi
5:20 AM61 °FClear.3 mph100%29.83 "Hg10 mi
4:50 AM61 °FClear.5 mph100%29.83 "HgN/A
4:20 AM61 °FFog.5 mph100%29.83 "HgN/A
3:50 AM59 °FFog.3 mph100%29.86 "HgN/A
3:20 AM61 °FPassing clouds.3 mph100%29.86 "HgN/A
2:50 AM61 °FPassing clouds.3 mph94%29.86 "HgN/A
2:20 AM61 °FPassing clouds.3 mph100%29.86 "HgN/A
1:50 AM63 °FPassing clouds.6 mph88%29.86 "HgN/A
1:20 AM63 °FPassing clouds.6 mph88%29.86 "HgN/A
12:50 AM63 °FClear.5 mph88%29.89 "Hg10 mi
12:20 AM63 °FClear.5 mph94%29.89 "Hg10 mi
11:50 PM
Sep 18
63 °FClear.2 mph94%29.89 "Hg10 mi
11:20 PM64 °FClear.3 mph88%29.89 "Hg10 mi
10:50 PM64 °FClear.5 mph88%29.89 "Hg10 mi
10:20 PM66 °FClear.5 mph83%29.89 "Hg10 mi
9:20 PM66 °FPassing clouds.3 mph78%29.86 "HgN/A
8:50 PM66 °FPassing clouds.3 mph78%29.89 "HgN/A
8:20 PM68 °FPartly sunny.3 mph73%29.86 "HgN/A
7:50 PM68 °FPartly sunny.5 mph73%29.86 "HgN/A
7:20 PM70 °FPartly sunny.3 mph73%29.86 "HgN/A
6:50 PM72 °FPartly sunny.7 mph69%29.86 "HgN/A
6:20 PM72 °FBroken clouds.5 mph69%29.86 "HgN/A
Weather by CustomWeather, © 2014

See weather overviewHow to use our weather pages